www.pogodaiklimat.ru
Время
(UTC), дата
22 20.10
23 20.10
00 21.10
01 21.10
02 21.10
03 21.10
04 21.10
05 21.10
06 21.10
07 21.10
08 21.10
09 21.10
10 21.10
11 21.10
12 21.10
13 21.10
14 21.10
15 21.10
16 21.10
17 21.10
18 21.10
19 21.10
20 21.10
21 21.10
22 21.10
23 21.10
00 22.10
01 22.10
02 22.10
03 22.10
04 22.10
05 22.10
06 22.10
07 22.10
08 22.10
09 22.10
10 22.10
11 22.10
12 22.10
13 22.10
14 22.10
15 22.10
16 22.10
17 22.10
18 22.10
19 22.10
20 22.10
21 22.10
22 22.10
23 22.10
00 23.10
01 23.10
02 23.10
03 23.10
04 23.10
05 23.10
06 23.10
07 23.10
08 23.10
09 23.10
10 23.10
11 23.10
12 23.10
13 23.10
14 23.10
15 23.10
16 23.10
17 23.10
18 23.10
19 23.10
20 23.10
21 23.10
22 23.10
23 23.10
00 24.10
01 24.10
02 24.10
03 24.10
04 24.10
05 24.10
06 24.10
07 24.10
08 24.10
09 24.10
10 24.10
11 24.10
12 24.10
13 24.10
14 24.10
15 24.10
16 24.10
17 24.10
18 24.10
19 24.10
20 24.10
21 24.10
22 24.10
23 24.10
00 25.10
01 25.10
02 25.10
03 25.10
04 25.10
05 25.10
06 25.10
07 25.10
08 25.10
09 25.10
10 25.10
11 25.10
12 25.10
13 25.10
14 25.10
15 25.10
16 25.10
17 25.10
18 25.10
19 25.10
20 25.10
21 25.10
22 25.10
23 25.10
00 26.10
01 26.10
02 26.10
03 26.10
04 26.10
05 26.10
06 26.10
07 26.10
08 26.10
09 26.10
10 26.10
11 26.10
12 26.10
13 26.10
14 26.10
15 26.10
16 26.10
17 26.10
18 26.10
19 26.10
20 26.10
21 26.10
22 26.10
23 26.10
00 27.10
01 27.10
02 27.10
03 27.10
04 27.10
05 27.10
06 27.10
07 27.10
08 27.10
09 27.10
10 27.10
11 27.10
12 27.10
13 27.10
14 27.10
15 27.10
18 27.10
21 27.10
Ветер
(напр.,м/с)
Видим. Явления Облачность Т
(С)
Тd
(С)
f
(%)
Тe
(С)
Тes
(С)
Комфортность P
(гПа)
Po
(гПа)
Тmin
(С)
Tmax
(С)
R
(мм)
R24
(мм)
S
(см)
ЮЗ 1
{2}
н/о н/о +8.8 +6.1 83 +8 +8 1023.8 987.8
З 1
{4}
н/о н/о +8.7 +6.2 84 +8 +8 1023.5 987.5
З 1
{3}
н/о н/о +8.9 +6.4 84 +8 +8 1023.2 987.2
З 1
{3}
н/о н/о +7.6 +5.9 89 +7 +7 1023.1 987.0
ЮЗ 1
{4}
н/о н/о +9.1 +6.5 84 +8 +8 1022.5 986.6
З 1
{3}
12 км 4/4 1000 м
[Sc]
+9.2 +6.8 85 +9 +9 1022.3 986.4
штиль 0 12 км 5/5 1000 м
[Sc]
+9.2 +7.1 87 +8 +8 1022.3 986.4
штиль 0
{1}
15 км 5/4 1000 м
[Sc Ci fib]
+9.4 +7.5 88 +9 +9 1021.9 986.1
штиль 0
{2}
20 км 8/6 700 м
[Cu Sc Ci fib]
+9.4 +7.8 90 +9 +9 1022.1 986.3 +7.6
ЮЗ 3 25 км 8/8 700 м
[Cu Sc Ci fib]
+12.3 +8.7 79 +11 +11 1022.6 987.1
ЮЗ 3 25 км 8/8 800 м
[Cu Sc Ci fib]
+13.0 +8.7 75 +12 +12 1022.9 987.5
ЮЗ 4
{9}
30 км 9/8 900 м
[Cu Sc Ci fib]
+14.2 +8.1 67 +13 +13 1023.0 987.7
ЮЗ 5 30 км 8/5 900 м
[Cu Sc Ci sp]
+14.9 +8.7 66 +14 +15 1023.0 987.8
З 3
{10}
30 км 6/3 900 м
[Cu Sc Ac trans Ci sp]
+16.2
ЮЗ 3
{13}
30 км 6/3 900 м
[Cu hum Ac trans Ci sp]
+17.1 +8.7 58 +17 +19 1022.2 987.2
ЮЗ 6 40 км 6/1 900 м
[Cu hum Ac trans Ci sp]
+17.4
З 3
{10}
н/о н/о +17.4 +7.5 52 +17 +17 1021.2 986.4
З 4
{11}
40 км 5/1 1000 м
[Cu hum Ac trans Ci sp]
+16.3 +6.9 54 +16 +16 1021.9 986.4
З 3 30 км 1/1 1200 м
[Cu Sc Ci sp]
+14.9 +6.9 59 +14 +14 1021.5 986.3
З 2
{7}
30 км 1/1 1300 м
[Cu hum]
+14.1 +7.3 64 +14 +14 1021.8 986.5
З 3
{7}
30 км 1/1 1200 м
[Cu hum]
+13.8 +7.3 65 +13 +13 1022.1 986.8 +17.8
З 3
{7}
30 км ясно +13.3 +7.4 67 +12 +12 1022.1 986.7
З 3 30 км 1/1 1200 м
[Cu hum]
+13.2 +7.2 67 +12 +12 1022.1 986.7
З 3
{10}
н/о н/о +12.9 +7.2 68 +12 +12 1021.9 986.5
З 2
{7}
н/о н/о +12.8 +7.5 70 +12 +12 1021.9 986.5
З 2
{6}
н/о н/о +12.9 +7.5 70 +12 +12 1021.8 986.4
З 3
{7}
н/о н/о +12.9 +7.3 69 +12 +12 1021.7 986.3
З 2
{7}
н/о н/о +13.1 +7.5 69 +12 +12 1021.8 986.4
З 2
{6}
н/о н/о +12.9 +7.5 70 +12 +12 1021.5 986.1
ЮЗ 3
{6}
10 км 8/8 1000 м
[Sc]
+13.2 +8.1 71 +12 +12 1021.1 985.8
З 2
{6}
10 км 8/8 1000 м
[Sc]
+13.3 +8.4 72 +13 +13 1021.2 985.9
ЮЗ 2
{6}
15 км 8/8 1000 м
[Sc]
+13.3 +8.0 70 +13 +13 1021.2 985.9
З 2
{5}
15 км 9/8 1000 м
[Sc As trans Ci fib]
+13.7 +8.4 70 +13 +13 1021.5 986.2 +12.7
ЮЗ 1
{5}
15 км 8/8 1000 м
[Sc Ci fib]
+14.2 +8.7 69 +15 +15 1022.2 987.0
ЮЗ 4
{7}
20 км 6/5
[Sc Ci fib]
+14.9 +8.9 67 +14 +15 1022.8 987.6
ЮЗ 6
{11}
20 км 3/3 1000 м
[Sc Ci fib]
+16.0 +8.8 62 +15 +16 1022.5 987.5
ЮЗ 6
{13}
25 км 3/1 1000 м
[Cu hum Ci sp]
+16.6 +9.0 61 +16 +17 1022.7 987.7
ЮЗ 7
{13}
30 км 3/1 1000 м
[Cu hum Ci sp]
+17.5 +8.9 57 +17 +18 1022.1 987.2
ЮЗ 5
{12}
40 км 5/1 1000 м
[Cu hum Ci sp]
+18.2 +9.0 55 +18 +20 1021.4 986.7
ЮЗ 5
{11}
40 км 5/1 1000 м
[Cu hum Ci sp]
+18.2 +9.4 56 +18 +20 1021.0 986.3
ЮЗ 5
{12}
н/о н/о +17.9 +9.0 56 +18 +18 1021.1 986.3
ЮЗ 5
{9}
н/о н/о +16.6 +8.8 60 +16 +16 1021.2 986.3
ЮЗ 5
{10}
50 км 6/1 1000 м
[Cu hum Ac trans Cs]
+15.8 +8.1 60 +15 +15 1021.4 986.4
ЮЗ 5
{10}
30 км 8/1 1200 м
[Cu hum Ac trans Cs]
+15.2 +8.2 63 +14 +14 1022.0 986.9
ЮЗ 4
{7}
30 км 8/1 1200 м
[Cu hum Ac lent Cs]
+14.4 +8.0 65 +13 +13 1022.3 987.1 +18.5
ЮЗ 2
{6}
30 км 5/1 1200 м
[Cu hum Ac lent Ci sp]
+14.1 +8.2 68 +14 +14 1022.4 987.1
З 1 30 км 5/5 1200 м
[Cu Sc]
+13.9 +8.2 68 +14 +14 1022.1 986.8
ЮЗ 3
{5}
н/о н/о +13.8 +8.1 68 +13 +13 1021.9 986.6
ЮЗ 3
{7}
н/о н/о +14.0 +8.4 69 +13 +13 1021.8 986.5
ЮЗ 3
{6}
н/о н/о +14.0 +8.5 69 +13 +13 1021.6 986.3
ЮЗ 3
{5}
н/о н/о +14.0 +9.1 72 +13 +13 1021.2 986.0
ЮЗ 3
{8}
н/о н/о +14.4 +9.5 72 +14 +14 1021.0 985.8
ЮЗ 2
{5}
н/о н/о +14.4 +9.6 73 +14 +14 1020.4 985.2
З 1
{3}
15 км 10/10 1000 м
[Sc]
+14.3 +9.7 74 +15 +15 1020.3 985.1
С 1
{2}
15 км 10/10 1000 м
[Sc]
+13.5 +9.1 75 +14 +14 1020.4 985.1
штиль 0
{1}
20 км 9/9 1000 м
[Sc Ci fib]
+13.1 +9.0 76 +13 +13 1020.0 984.7
З 2
{5}
25 км 8/5 1000 м
[Sc Ac lent Ci fib]
+14.3 +9.4 72 +14 +14 1019.6 984.5 +12.9
З 2 25 км 9/4 600 м
[Cu Sc Ac trans Ci fib]
+14.8 +9.7 71 +15 +15 1019.6 984.5
ЮЗ 4 25 км 8/3 600 м
[Cu Sc Ac trans Ci sp]
+15.8 +10.1 69 +15 +16 1019.6 984.6
З 4
{11}
20 км 9/4 600 м
[Cu Sc Ac As Ci sp]
+16.4 +10.4 68 +16 +17 1019.6 984.7
З 4 20 км 10/6 600 м
[Cu Sc Ac As]
+16.4 +11.0 70 +16 +16 1019.7 984.8
З 4 20 км 9/6 600 м
[Cu Sc Ac As Ci sp]
+16.4 +11.1 71 +16 +17 1019.5 984.6
ЮЗ 3
{6}
25 км 8/5 600 м
[Cu Sc Ac As Ci sp]
+16.9 +11.3 70 +17 +18 1019.2 984.4
З 2 25 км 9/5 600 м
[Cu Sc Ac As Ci sp]
+17.0 +11.4 70 +17 +18 1018.7 983.9
ЮЗ 3
{7}
н/о н/о +17.4 +11.1 66 +17 +17 1018.2 983.5
З 2
{6}
25 км 8/4 800 м
[Cu Sc Ac lent Cs]
+17.3 +10.9 66 +18 +18 1018.1 983.4
З 1 20 км слаб. ливневой дождь 9/5 800 м
[Cu Sc Ac lent Cs]
+16.3 +10.9 70 +17 +17 1017.7 982.9
З 2 20 км 8/4 1000 м
[Cu hum Ac lent Ci sp]
+15.7 +11.1 74 +16 +16 1017.6 982.7
З 3
{6}
20 км 9/5 1200 м
[Sc Ac trans]
+15.8 +11.2 74 +15 +15 1018.0 983.1 +17.6 0.0
З 2
{4}
20 км 9/6 1200 м
[Sc Ac trans]
+15.8 +11.8 77 +16 +16 1017.5 982.6
З 1 20 км 10/8 1200 м
[Sc Ac trans]
+15.8 +12.0 78 +17 +17 1017.5 982.6
ЮЗ 1
{4}
н/о н/о +15.4 +12.3 82 +16 +16 1017.8 982.9
штиль 0
{2}
н/о н/о +14.7 +12.8 88 +14 +14 1017.7 982.7
штиль 0
{3}
н/о н/о +14.6 +12.9 90 +14 +14 1017.6 982.6
С 2
{3}
н/о н/о +14.3 +13.0 92 +14 +14 1017.2 982.2
штиль 0
{2}
н/о н/о +14.4 +12.8 90 +14 +14 1016.9 981.9
СВ 1
{2}
н/о н/о +14.3 +13.1 92 +15 +15 1016.4 981.4
В 1
{2}
н/о н/о +14.0 +12.9 93 +14 +14 1016.2 981.2
С 1 10 км в посл. час ливневой дождь 10/10 90 м
[Sc]
+14.2 +13.0 92 +14 +14 1016.2 981.2
штиль 0 10 км 10/10 90 м
[Sc]
+14.2 +13.1 93 +14 +14 1016.0 981.0
штиль 0 15 км слаб. ливневой дождь 10/9 600 м
[Sc]
+14.2 +13.0 92 +14 +14 1016.1 981.1 +14.0 0.5 0.5
штиль 0 5000 м ливневой дождь 10/10 400 м
[Sc]
+14.3 +13.1 92 +14 +14 1016.6 981.6
4000 м слаб. ливневой дождь н/о +14.7 +13.5 93 +15 +15 1016.7 981.8

{2}
6000 м в посл. час ливневой дождь н/о +15.0 +13.4 90 +15 +16 1016.8 981.9
штиль 0
{1}
н/о н/о +15.4 +13.6 89 +15 +15 1016.9 982.0
штиль 0
{1}
н/о н/о +15.5 +14.1 91 +15 +15 1016.4 981.6
штиль 0
{3}
н/о н/о +15.6 +13.7 88 +15 +19 1015.8 981.0 2
В 1
{2}
15 км 10/0 +16.0 +13.9 87 +17 +19 1015.5 980.8
ЮВ 1
{3}
н/о н/о +15.9 +13.6 86 +17 +17 1015.6 980.8
ЮВ 1
{2}
н/о н/о +15.5 +13.2 86 +16 +16 2031.9 1962.1
ЮВ 1
{3}
н/о н/о +14.8 980.8
ЮВ 1
{4}
н/о н/о +13.9 +12.3 90 +14 +14 1016.5 981.5
Ю 1
{2}
12 км слаб. дождь 10/0 +13.6 +12.4 92 +14 +14 1017.1 981.8 +16.1 7
штиль 0
{1}
10 км 10/0 +13.5 +12.2 92 +13 +13 1017.1 981.7
СЗ 1
{1}
10 км слаб. дождь 10/0 +13.4 +12.3 93 +14 +14 1017.1 981.8
ЮЗ 1
{1}
н/о н/о +13.3 +12.4 94 +13 +13 1016.8 981.7
штиль 0
{1}
н/о н/о +13.1 +12.1 94 +13 +13 1016.6 981.5
штиль 0
{1}
н/о н/о +12.9 +11.9 94 +12 +12 1016.2 981.0
штиль 0
{1}
н/о н/о +12.6 +11.9 95 +12 +12 1016.1 980.9
штиль 0
{1}
н/о н/о +12.5 +11.7 95 +12 +12 1015.9 980.7
штиль 0
{1}
н/о н/о +12.3 +11.5 95 +12 +12 1015.7 980.5
штиль 0
{2}
н/о н/о +11.6 +11.1 97 +11 +11 1015.7 980.4
С 1
{2}
100 м туман ?/? +11.8 +11.4 97 +12 +12 1015.8 980.5
штиль 0 100 м туман ?/? +11.7 +11.3 97 +11 +11 1015.8 980.5
С 1
{1}
100 м туман ?/? +11.4 +11.0 97 +11 +11 1015.8 980.5 1 7.9
штиль 0
{2}
100 м туман ?/? +11.4 +11.0 97 +11 +11 1016.3 980.9
С 1
{2}
900 м туман ?/? +11.9 +11.2 95 +12 +12 1016.1 980.8
штиль 0
{2}
2000 м 10/10 180 м
[Sc]
+12.4 +11.2 92 +12 +12 1015.7 980.5
СЗ 1
{2}
н/о н/о +12.8 +11.1 89 +13 +13 1015.6 980.4
штиль 0
{2}
н/о н/о +13.7 +11.3 85 +13 +13 1014.9 979.9
С 1
{3}
30 км 3/0 +15.0 +11.1 77 +16 +20 1013.7 978.9
СВ 1
{2}
30 км 8/0 +15.7 +11.7 77 +16 +19 1012.8 978.1
В 1
{2}
н/о н/о +16.6 +12.0 74 +17 +17 1012.3 977.7
штиль 0
{2}
н/о н/о +16.6 +11.8 73 +17 +17 1012.1 977.5
З 1
{2}
н/о н/о +15.4 +12.0 80 +16 +16 1012.1 977.4
ЮЗ 2
{4}
н/о н/о +14.6 +11.3 81 +14 +14 1012.2 977.4
ЮЗ 2
{7}
25 км 3/0 +14.5 +10.0 74 +14 +14 1012.3 977.4 +17.7
ЮЗ 3
{7}
25 км 3/0 +14.0 +9.8 76 +13 +13 1012.2 977.3
ЮЗ 1
{4}
25 км 8/0 +14.4 +10.0 75 +15 +15 1012.8 977.9
ЮЗ 2
{4}
н/о н/о +14.0 +10.0 77 +14 +14 1012.7 977.8
Ю 2
{4}
н/о н/о +13.6 +10.0 79 +13 +13 1012.6 977.6
З 2
{4}
н/о н/о +12.9 +9.8 81 +12 +12 1012.4 977.3
ЮЗ 2
{4}
н/о н/о +13.4 +9.9 79 +13 +13 1011.8 976.8
ЮЗ 2
{4}
н/о н/о +13.2 +10.6 84 +12 +12 1011.2 976.2
ЮЗ 2
{3}
н/о н/о +12.9 +10.9 88 +12 +12 1010.6 975.6
ЮЗ 2
{3}
н/о н/о +13.0 +10.9 87 +12 +12 1010.3 975.3
ЮЗ 2
{4}
10 км слаб. дождь 10/10 1300 м
[Sc]
+13.4 +11.0 85 +13 +13 1009.9 975.0
ЮЗ 2
{4}
10 км 10/10 1300 м
[Sc]
+13.6 +10.9 84 +13 +13 1009.7 974.8
ЮЗ 2
{5}
20 км 9/8 1000 м
[Cu Sc Ac trans]
+14.0 +10.4 79 +14 +14 1009.7 974.9 +12.8 0.8 0.8
З 2 20 км 9/8 1000 м
[Cu Sc Ac trans]
+14.2 +10.3 77 +14 +14 1010.1 975.3
ЮЗ 3
{6}
20 км 6/4 1000 м
[Cu Sc Ac trans Ci sp]
+14.7 +10.0 73 +14 +14 1010.0 975.2
ЮЗ 3
{8}
20 км 4/4 1000 м
[Cu Sc Ac lent Ci sp]
+16.8 +10.0 64 +17 +18 1009.5 975.0
ЮЗ 3 25 км 9/5 1000 м
[Cu Sc Ac lent Ci sp]
+16.3 +10.0 66 +16 +17 1009.6 975.0
ЮЗ 2 30 км 9/6 1000 м
[Cu Sc Ac trans Ci fib]
+17.0 +10.2 64 +17 +19 1008.8 974.4
ЮЗ 2
{5}
30 км 9/6 1000 м
[Cu Sc Ac trans Ci fib]
+17.5 +10.2 62 +18 +19 1008.4 974.0
З 2 30 км 9/8 1000 м
[Cu Sc Ac trans Ci fib]
+16.8 +10.1 65 +17 +18 1008.2 973.8
ЮЗ 3
{7}
н/о н/о +17.0 +10.2 64 +17 +17 1007.9 973.5
ЮЗ 4
{8}
25 км 9/8 800 м
[Cu Sc Ac trans Ci fib]
+17.0 +9.6 62 +17 +17 1007.8 973.4
ЮЗ 2 25 км 9/8 800 м
[Cu Sc Ac As Ci fib]
+16.3 +9.7 65 +16 +16 1007.7 973.2
ЮЗ 2 25 км 8/6 800 м
[Cu Sc Ac As]
+16.1 +9.0 63 +16 +16 1007.7 973.2
С 1
{2}
25 км 6/5 1200 м
[Sc Ac trans]
+14.3 +9.4 72 +15 +15 1007.9 973.2 +17.6
З 2
{4}
25 км 8/6 1200 м
[Sc Ac trans]
+14.6 +9.7 72 +14 +14 1007.7 973.0
В 2 25 км 8/8 1200 м
[Sc]
+13.8 +9.5 75 +13 +13 1008.1 973.3
СВ 1
{2}
н/о н/о +12.4 +9.2 81 +12 +12 1008.3 973.3
В 1
{2}
н/о н/о +11.2 +9.0 86 +11 +11 1008.5 973.4
В 1
{3}
н/о н/о +10.8 +8.9 88 +10 +10 1008.3 973.1
СВ 1
{2}
н/о н/о +10.2 +8.6 90 +10 +10 1008.5 973.2
СВ 1
{2}
н/о н/о +10.2 +8.8 91 +10 +10 1007.8 972.6
штиль 0
{1}
н/о н/о +10.2 +8.8 91 +9 +9 1007.6 972.4
В 1
{2}
н/о н/о +10.3 +9.2 93 +10 +10 1007.3 972.1

{2}
5000 м дождь 10/10 600 м
[Sc]
+10.7 +9.8 94 1007.5 972.4

{1}
5000 м дождь н/о +11.1 +10.3 95 +11 +11 1007.4 972.3
штиль 0
{1}
8000 м дождь 10/9 600 м
[Sc Ac As]
+11.3 +10.4 94 +11 +11 1008.0 972.9 +9.9 8 7.8
СВ 2 3000 м дождь 10/10 90 м
[Sc]
+11.3 +10.6 95 +10 +10 1008.1 973.0
6000 м слаб. дождь н/о +11.8 +10.9 94 +12 +12 1008.5 973.5
штиль 0
{2}
10 км в посл. час дождь 10/10 90 м
[Sc]
+12.3 +11.2 93 +12 +12 1008.9 973.9
штиль 0 10 км 10/10 180 м
[Sc]
+13.3 +11.6 89 +13 +13 1009.7 974.8
штиль 0 10 км слаб. дождь 10/10 180 м
[Sc]
+13.3 +11.4 88 +13 +13 1010.2 975.3
штиль 0
{2}
12 км в посл. час дождь 10/9 180 м
[Sc Ac As]
+13.3 +11.6 89 +13 +13 1009.9 975.0 10
ЮЗ 1 12 км слаб. ливневой дождь 9/8 90 м
[Sc Ac As]
+13.6 +11.9 89 +14 +14 1010.7 975.8
штиль 0
{2}
н/о н/о +13.7 +11.7 88 +13 +13 1010.9 976.0
В 1
{2}
н/о н/о +13.4 +11.7 89 +14 +14 1011.1 976.2
штиль 0
{1}
15 км 9/4 180 м
[Sc Ac As]
+12.4 +11.4 94 +12 +12 1013.4 978.3 +13.8 10
штиль 0
{2}
н/о н/о +11.7 +10.7 94 +11 +11 1015.0 979.7
Местоположение метеостанции Любляна (Словения): широта 46.07 долгота 14.52 высота над уровнем моря 298 м.
В архиве по умолчанию представлена погода в Любляне за последнюю неделю. Архивные данные за месяц целиком и за предыдущие месяцы, начиная с января 2011 года, Вы можете получить, выбрав интересующий диапазон дат из раскрывающегося списка и нажав кнопку "Найти!".
*Определитесь, кто Вы:
Внимание! Время в таблицах - всемирное. Для получения местного времени необходимо прибавить поправку, которая равна 1 ч.
Смотрите также архив погоды в соседних городах и на ближайших метеорологических станциях:
Партнеры нашего сайта:      
Пояснения к столбцам:
  • Ветер - указаны скорость ветра в м/с - средняя за 10 мин, порывы в срок и между сроками (в фигурных скобках) и направление, откуда дует ветер: С - северный,
  • СВ - северо-восточный, В - восточный, ЮВ - юго-восточный, Ю - южный, ЮЗ - юго-западный, З - западный, СЗ - северо-западный.
  • Видимость - горизонтальная дальность видимости в метрах или километрах. При видимости от 1 до 10 км при отсутствии осадков обычно наблюдается дымка, при ухудшении видимости до 1 км и менее - туман. В сухую погоду видимость может ухудшаться дымом, пылью или мглою.
  • Явления - указаны атмосферные явления, наблюдавшиеся в срок или в последний час перед сроком; фигурными скобками обозначены явления, наблюдавшиеся между сроками (за 1-3 часа до срока); квадратными скобками обозначены град или гололедные отложения с указанием их диаметра в мм.
  • Облачность - указаны через наклонную черту общая и нижняя облачность в баллах и высота нижней границы облаков в метрах; квадратными скобками обозначены формы облаков: Ci - перистые, Cs - перисто-слоистые, Cc - перисто-кучевые, Ac - высококучевые, As - высокослоистые, Sc - слоисто-кучевые, Ns - слоисто-дождевые, Cu - кучевые, Cb - кучево-дождевые. Подробнее классификацию облаков см. в Атласе облаков (PDF).
  • T - Температура воздуха - температура, измеренная на высоте 2 м над землей.
  • Td - Температура точки росы - температура, при понижении до которой содержащийся в воздухе водяной пар достигнет насыщения.
  • f - Относительная влажность воздуха - влажноcть воздуха, измеренная на высоте 2 м над землей.
  • Te - Эффективная температура - температура, которую ощущает одетый по сезону человек в тени. Характеристика душности погоды. При расчете учитывается влияние влажности воздуха и скорости ветра на теплоощущения человека.
  • Tes - Эффективная температура на солнце - температура, которую ощущает человек, с поправкой на солнечный нагрев. Характеристика знойности погоды. Зависит от высоты солнца над горизонтом, облачности и скорости ветра. Ночью, в пасмурную погоду, а также при ветре 12 м/с и более поправка равна нулю.
  • P - Атмосферное давление - приведенное к уровню моря атмосферное давление.
  • Po - Атмосферное давление - измеренное на уровне метеостанции атмосферное давление.
  • Tmin - Минимальная температура - минимум температуры воздуха на высоте 2 м над землей.
  • Tmax - Максимальная температура - максимум температуры воздуха на высоте 2 м над землей.
  • R - Количество осадков - Количество выпавших осадков за период времени, мм. При наведении курсора мыши на число - период времени, за который выпало указанное количество осадков.
  • R24 - Количество осадков - Количество выпавших осадков за 24 часа, мм.
  • S - Снежный покров - Высота снежного покрова, см. При наведении курсора мыши на число - состояние снежного покрова и степень покрытия местности в баллах.